Погода в Галаце

Румыния     45°26′58″N   28°02′00″E
темп.,
°C
ветер,
м/с
пор.,
м/с
влажн.,
%
обл.,
%
осадки,
мм/ч
давл.,
гПа
погр.,
м
26 октября, вт
вт2600:00+5вюв22590 0.0 103227
03:00+5юв22660 0.0 103212
06:00+4вюв22731 0.0 103110
09:00+6вюв24742 0.0 1030146
12:00+11ююв45510 0.0 10291138
15:00+13ююв45440 0.0 10271380
18:00+11ююв47608 0.0 1027150
21:00+9ююв37690 0.0 1027121
27 октября, ср
ср2700:00+8ю33770 0.0 102638
03:00+7ююз35820 0.0 102675
06:00+6ю34860 0.0 102654
09:00+8юз24790 0.0 1027135
12:00+13зюз45540 0.0 1027776
15:00+15ссз35340 0.0 10251127
18:00+12ссв33410 0.0 102522
21:00+10ссв33475 0.0 102727
28 октября, чт
чт2800:00+9с335393 0.0 102723
03:00+8с22589 0.0 102710
06:00+7с11629 0.0 102710
09:00+9с11575 0.0 102842
12:00+15зсз114241 0.0 1028512
15:00+17зсз013690 0.0 1026893
18:00+14ю114351 0.0 102610
21:00+12зюз114863 0.0 102710
29 октября, пт
пт2900:00+11зсз115153 0.0 102710
03:00+10сз11545 0.0 102710
06:00+9сз22565 0.0 102710
09:00+11ссв22525 0.0 102845
12:00+16св22365 0.0 1028513
15:00+18в22335 0.0 1027966
18:00+14ююв33465 0.0 102721
21:00+13в33520 0.0 102729
30 октября, сб
сб3000:00+11в35790 0.0 102879
03:00+10вюв33920 0.0 102854
06:00+10вюв23940 0.0 102833
09:00+11вюв24920 0.0 1029139
12:00+16юв45620 0.0 1029740
15:00+18ююв45492 0.0 10281313
18:00+15юв46590 0.0 1028107
21:00+12ююв36800 0.0 102994